Location: Elstree
(51.6403°N, 0.2969°W)
Time: 05:35:40
(UTC+00:00)

Envisat - Visible Passes

Search period start: 02 December 2022 00:00
Search period end: 12 December 2022 00:00
Orbit: 763 x 765 km, 98.2° (Epoch: 01 December)

Date Brightness Start Highest point End Pass type
(mag) Time Alt. Az. Time Alt. Az. Time Alt. Az.
02 Dec 5.4 03:18:58 10° NE 03:20:50 18° NE 03:20:50 18° NE visible
02 Dec 3.6 04:57:27 10° N 05:01:00 42° NNW 05:01:00 42° NNW visible
02 Dec 4.7 06:38:28 10° NNW 06:40:28 12° NW 06:41:10 12° WNW visible
03 Dec 4.1 04:20:23 10° NNE 04:23:24 36° NNE 04:23:24 36° NNE visible
03 Dec 4.2 06:00:14 10° N 06:03:34 21° NW 06:03:34 21° NW visible
04 Dec 5.0 03:43:36 10° NNE 03:45:48 23° NE 03:45:48 23° NE visible
04 Dec 3.9 05:22:41 10° N 05:25:58 32° NNW 05:25:58 32° NNW visible
04 Dec 5.8 16:44:46 10° SW 16:47:59 17° W 16:51:13 10° NW visible
05 Dec 5.8 03:07:20 10° NE 03:08:12 13° NE 03:08:12 13° NE visible
05 Dec 4.0 04:45:27 10° N 04:48:23 35° N 04:48:23 35° N visible
05 Dec 4.6 06:25:58 10° NNW 06:28:33 15° NW 06:28:33 15° NW visible
06 Dec 4.6 04:08:28 10° NNE 04:10:48 27° NNE 04:10:48 27° NNE visible
06 Dec 4.2 05:48:04 10° N 05:50:58 23° NW 05:50:58 23° NW visible
07 Dec 5.4 03:31:48 10° NNE 03:33:13 17° NE 03:33:13 17° NE visible
07 Dec 4.1 05:10:37 10° N 05:13:24 30° NNW 05:13:24 30° NNW visible
07 Dec 5.7 16:32:07 10° SW 16:35:52 21° W 16:39:39 10° NW visible
08 Dec 4.4 04:33:28 10° NNE 04:35:50 28° NNE 04:35:50 28° NNE visible
08 Dec 4.5 06:13:38 10° NNW 06:16:00 17° NW 06:16:00 17° NW visible
09 Dec 5.1 03:56:34 10° NNE 03:58:16 21° NNE 03:58:16 21° NNE visible
09 Dec 4.3 05:35:56 10° N 05:38:27 24° NNW 05:38:27 24° NNW visible
09 Dec 6.0 16:59:00 10° WSW 17:01:15 13° W 17:03:32 10° WNW visible
10 Dec 5.7 03:20:03 10° NE 03:20:43 13° NE 03:20:43 13° NE visible
10 Dec 4.3 04:58:35 10° N 05:00:54 26° N 05:00:54 26° N visible
10 Dec 4.8 06:39:43 10° NNW 06:41:04 12° NW 06:41:04 12° NW visible
11 Dec 4.8 04:21:30 10° NNE 04:23:21 23° NNE 04:23:21 23° NNE visible
11 Dec 4.5 06:01:23 10° N 06:03:31 18° NNW 06:03:31 18° NNW visible
